When you browse on this site, cookies collect data to enhance your experience and personalize the content and advertising you see.
Visit our Privacy Policy to learn more. By continuing to use the site, you agree to this use of cookies and data.
  • In Portugal
  • List of Countries
  • For 7 days
  • Water Temperature
  • Satellite Maps
  • Weather Map
  • Weather Widgets
  • user-avatar
    Login

    Hourly Weather Dvoreckaya Sloboda

    Today, 26 April, Friday

    Time Temperature Precipitation Wind Pressure Humidity
    00:00 +13°C° 0 mm 2 mps 753 mmHg 56%
    01:00 +12°C° 0 mm 2 mps 753 mmHg 58%
    02:00 +11°C° 0 mm 1 mps 753 mmHg 61%
    03:00 +10°C° 0 mm 2 mps 753 mmHg 63%
    04:00 +10°C° 0 mm 2 mps 753 mmHg 65%
    05:00 +9°C° 0 mm 2 mps 753 mmHg 67%
    06:00 +12°C° 0 mm 2 mps 753 mmHg 64%
    07:00 +14°C° 0 mm 2 mps 753 mmHg 60%
    08:00 +16°C° 0 mm 3 mps 752 mmHg 57%
    09:00 +18°C° 0 mm 3 mps 752 mmHg 52%
    10:00 +19°C° 0 mm 4 mps 752 mmHg 47%
    11:00 +21°C° 0 mm 4 mps 752 mmHg 42%
    12:00 +21°C° 0 mm 4 mps 751 mmHg 41%
    13:00 +22°C° 0 mm 4 mps 751 mmHg 39%
    14:00 +23°C° 0 mm 4 mps 751 mmHg 38%
    15:00 +22°C° 0 mm 4 mps 750 mmHg 38%
    16:00 +22°C° 0 mm 4 mps 750 mmHg 39%
    17:00 +22°C° 0 mm 4 mps 750 mmHg 39%
    18:00 +20°C° 0 mm 3 mps 750 mmHg 43%
    19:00 +18°C° 0 mm 3 mps 750 mmHg 47%
    20:00 +16°C° 0 mm 3 mps 749 mmHg 51%
    21:00 +14°C° 0 mm 3 mps 749 mmHg 52%
    22:00 +14°C° 0 mm 3 mps 749 mmHg 53%
    23:00 +13°C° 0 mm 3 mps 749 mmHg 55%

    Tomorrow, 27 April, Saturday

    Time Temperature Precipitation Wind Pressure Humidity
    00:00 +13°C° 0 mm 3 mps 749 mmHg 60%
    01:00 +12°C° 0 mm 3 mps 748 mmHg 65%
    02:00 +12°C° 0 mm 3 mps 748 mmHg 70%
    03:00 +12°C° 0.2 mm 3 mps 748 mmHg 74%
    04:00 +12°C° 0.2 mm 3 mps 747 mmHg 77%
    05:00 +12°C° 0.2 mm 3 mps 747 mmHg 80%
    06:00 +12°C° 0.3 mm 3 mps 747 mmHg 80%
    07:00 +13°C° 0.3 mm 3 mps 746 mmHg 79%
    08:00 +14°C° 0.3 mm 4 mps 746 mmHg 78%
    09:00 +15°C° 0.2 mm 4 mps 746 mmHg 74%
    10:00 +18°C° 0.2 mm 4 mps 746 mmHg 70%
    11:00 +19°C° 0.2 mm 4 mps 746 mmHg 66%
    12:00 +20°C° 0.2 mm 4 mps 745 mmHg 61%
    13:00 +22°C° 0.2 mm 4 mps 745 mmHg 57%
    14:00 +23°C° 0.2 mm 4 mps 745 mmHg 52%
    15:00 +23°C° 0.3 mm 4 mps 744 mmHg 55%
    16:00 +24°C° 0.3 mm 3 mps 744 mmHg 57%
    17:00 +22°C° 0.3 mm 3 mps 743 mmHg 60%
    18:00 +21°C° 0.2 mm 2 mps 743 mmHg 67%
    19:00 +19°C° 0.2 mm 2 mps 743 mmHg 75%
    20:00 +18°C° 0.2 mm 1 mps 743 mmHg 82%
    21:00 +18°C° 0.2 mm 1 mps 743 mmHg 85%
    22:00 +16°C° 0.2 mm 1 mps 743 mmHg 88%
    23:00 +15°C° 0.2 mm 2 mps 743 mmHg 90%

    Day after tomorrow, 28 April, Sunday

    Time Temperature Precipitation Wind Pressure Humidity
    00:00 +15°C° 0 mm 1 mps 743 mmHg 91%
    01:00 +14°C° 0 mm 1 mps 743 mmHg 92%
    02:00 +14°C° 0 mm 1 mps 743 mmHg 92%
    03:00 +14°C° 0 mm 1 mps 743 mmHg 93%
    04:00 +13°C° 0 mm 1 mps 743 mmHg 94%
    05:00 +13°C° 0 mm 2 mps 743 mmHg 95%
    06:00 +15°C° 0 mm 2 mps 743 mmHg 90%
    07:00 +16°C° 0 mm 2 mps 744 mmHg 85%
    08:00 +17°C° 0 mm 3 mps 744 mmHg 81%
    09:00 +19°C° 0 mm 3 mps 744 mmHg 73%
    10:00 +20°C° 0 mm 4 mps 744 mmHg 66%
    11:00 +22°C° 0 mm 4 mps 744 mmHg 58%
    12:00 +22°C° 0.2 mm 5 mps 744 mmHg 55%
    13:00 +23°C° 0.2 mm 5 mps 745 mmHg 53%
    14:00 +23°C° 0.2 mm 5 mps 745 mmHg 50%
    15:00 +22°C° 0.7 mm 6 mps 745 mmHg 55%
    16:00 +21°C° 0.7 mm 6 mps 745 mmHg 60%
    17:00 +20°C° 0.7 mm 6 mps 746 mmHg 65%
    18:00 +17°C° 0.1 mm 6 mps 746 mmHg 68%
    19:00 +15°C° 0.1 mm 6 mps 747 mmHg 72%
    20:00 +14°C° 0.1 mm 6 mps 747 mmHg 75%
    21:00 +13°C° 0 mm 6 mps 747 mmHg 75%
    22:00 +11°C° 0 mm 6 mps 748 mmHg 74%
    23:00 +10°C° 0 mm 6 mps 748 mmHg 74%

    29 April, Monday

    Time Temperature Precipitation Wind Pressure Humidity
    00:00 +9°C° 0 mm 6 mps 749 mmHg 71%
    01:00 +8°C° 0 mm 6 mps 749 mmHg 69%
    02:00 +8°C° 0 mm 6 mps 749 mmHg 66%
    03:00 +7°C° 0 mm 6 mps 749 mmHg 66%
    04:00 +5°C° 0 mm 6 mps 750 mmHg 65%
    05:00 +4°C° 0 mm 6 mps 750 mmHg 64%
    06:00 +5°C° 0 mm 6 mps 750 mmHg 63%
    07:00 +7°C° 0 mm 6 mps 750 mmHg 62%
    08:00 +8°C° 0 mm 7 mps 751 mmHg 61%
    09:00 +9°C° 0 mm 7 mps 751 mmHg 57%
    10:00 +10°C° 0 mm 7 mps 751 mmHg 52%
    11:00 +12°C° 0 mm 7 mps 751 mmHg 47%
    12:00 +12°C° 0 mm 7 mps 751 mmHg 46%
    13:00 +14°C° 0 mm 7 mps 750 mmHg 44%
    14:00 +14°C° 0 mm 7 mps 750 mmHg 42%
    15:00 +14°C° 0 mm 6 mps 750 mmHg 43%
    16:00 +14°C° 0 mm 6 mps 750 mmHg 44%
    17:00 +13°C° 0 mm 6 mps 750 mmHg 46%
    18:00 +12°C° 0 mm 5 mps 750 mmHg 50%
    19:00 +9°C° 0 mm 5 mps 750 mmHg 55%
    20:00 +8°C° 0 mm 4 mps 750 mmHg 60%
    21:00 +7°C° 0 mm 4 mps 750 mmHg 61%
    22:00 +6°C° 0 mm 4 mps 750 mmHg 62%
    23:00 +6°C° 0 mm 4 mps 750 mmHg 64%

    30 April, Tuesday

    Time Temperature Precipitation Wind Pressure Humidity
    00:00 +5°C° 0 mm 4 mps 750 mmHg 64%
    01:00 +4°C° 0 mm 4 mps 750 mmHg 64%
    02:00 +4°C° 0 mm 4 mps 750 mmHg 65%
    03:00 +3°C° 0 mm 4 mps 749 mmHg 66%
    04:00 +3°C° 0 mm 4 mps 749 mmHg 67%
    05:00 +1°C° 0 mm 4 mps 749 mmHg 68%
    06:00 +4°C° 0 mm 4 mps 749 mmHg 64%
    07:00 +6°C° 0 mm 5 mps 749 mmHg 59%
    08:00 +7°C° 0 mm 5 mps 749 mmHg 54%
    09:00 +8°C° 0 mm 6 mps 748 mmHg 50%
    10:00 +10°C° 0 mm 6 mps 748 mmHg 47%
    11:00 +11°C° 0 mm 6 mps 748 mmHg 43%
    12:00 +13°C° 0 mm 6 mps 747 mmHg 42%
    13:00 +13°C° 0 mm 6 mps 747 mmHg 41%
    14:00 +14°C° 0 mm 6 mps 747 mmHg 40%
    15:00 +14°C° 0 mm 5 mps 746 mmHg 40%
    16:00 +13°C° 0 mm 5 mps 746 mmHg 41%
    17:00 +13°C° 0 mm 5 mps 746 mmHg 41%
    18:00 +10°C° 0 mm 5 mps 746 mmHg 46%
    19:00 +10°C° 0 mm 4 mps 746 mmHg 51%
    20:00 +7°C° 0 mm 4 mps 746 mmHg 55%
    21:00 +7°C° 0 mm 4 mps 746 mmHg 56%
    22:00 +6°C° 0 mm 4 mps 747 mmHg 57%
    23:00 +6°C° 0 mm 4 mps 747 mmHg 57%

    1 May, Wednesday

    Time Temperature Precipitation Wind Pressure Humidity
    00:00 +5°C° 0 mm 3 mps 746 mmHg 60%
    01:00 +4°C° 0 mm 3 mps 746 mmHg 63%
    02:00 +4°C° 0 mm 3 mps 746 mmHg 65%
    03:00 +3°C° 0 mm 3 mps 746 mmHg 67%
    04:00 +3°C° 0 mm 3 mps 746 mmHg 69%
    05:00 +3°C° 0 mm 2 mps 747 mmHg 71%
    06:00 +4°C° 0 mm 3 mps 747 mmHg 66%
    07:00 +7°C° 0 mm 3 mps 747 mmHg 61%
    08:00 +9°C° 0 mm 3 mps 747 mmHg 57%
    09:00 +10°C° 0 mm 3 mps 746 mmHg 52%
    10:00 +11°C° 0 mm 4 mps 746 mmHg 48%
    11:00 +12°C° 0 mm 4 mps 746 mmHg 43%
    12:00 +12°C° 0 mm 4 mps 746 mmHg 43%
    13:00 +13°C° 0 mm 4 mps 746 mmHg 42%
    14:00 +13°C° 0 mm 4 mps 745 mmHg 42%
    15:00 +13°C° 0 mm 3 mps 745 mmHg 43%
    16:00 +13°C° 0 mm 3 mps 745 mmHg 44%
    17:00 +12°C° 0 mm 3 mps 745 mmHg 45%
    18:00 +12°C° 0 mm 2 mps 745 mmHg 48%
    19:00 +10°C° 0 mm 2 mps 745 mmHg 51%
    20:00 +11°C° 0 mm 1 mps 745 mmHg 54%
    21:00 +10°C° 0 mm 1 mps 745 mmHg 57%
    22:00 +9°C° 0 mm 1 mps 744 mmHg 59%
    23:00 +8°C° 0 mm 1 mps 744 mmHg 61%
    Show more